DW6455 Weather Reports


Display with metric or nautical units.
time (UTC)temp
F
wind
direction
speed
MPH
gust
MPH
rain 1hr
in
rain 24hr
in
rain mn
in
humidity
%
barometer
mb
20260502130530 67 315 5.0 12.0 0.00 0.00 0.00 35 1005.9
20260502123550 68 270 2.0 9.0 0.00 0.00 0.00 35 1006.0
20260502122530 68 293 8.0 17.0 0.00 0.00 0.00 35 1006.1
20260502121530 68 293 7.0 16.0 0.00 0.00 0.00 35 1006.1
20260502120530 68 248 6.0 15.0 0.00 0.00 0.00 35 1006.3
20260502115550 68 293 2.0 9.0 0.00 0.00 0.00 35 1006.4
20260502113530 68 248 5.0 11.0 0.00 0.00 0.00 36 1006.4
20260502112531 68 248 5.0 12.0 0.00 0.00 0.00 35 1006.4
20260502111530 68 248 5.0 11.0 0.00 0.00 0.00 36 1006.6
20260502110551 68 270 5.0 22.0 0.00 0.00 0.00 36 1006.6
20260502105531 68 270 4.0 10.0 0.00 0.00 0.00 35 1006.8
20260502104530 68 248 6.0 19.0 0.00 0.00 0.00 36 1006.8
20260502103530 67 270 5.0 15.0 0.00 0.00 0.00 37 1006.9
20260502102529 67 248 4.0 14.0 0.00 0.00 0.00 37 1006.9
20260502101530 67 270 3.0 11.0 0.00 0.00 0.00 38 1007.0
20260502100530 66 225 6.0 15.0 0.00 0.00 0.00 40 1006.9
20260502091530 66 248 6.0 13.0 0.00 0.00 0.00 42 1007.3
20260502090530 66 293 4.0 19.0 0.00 0.00 0.00 43 1007.4
20260502071530 59 225 4.0 11.0 0.00 0.00 0.00 62 1008.2
20260502070550 58 203 3.0 14.0 0.00 0.00 0.00 65 1008.3
20260502065530 57 225 4.0 9.0 0.00 0.00 0.00 68 1008.2
20260502064530 56 180 4.0 9.0 0.00 0.00 0.00 68 1008.2
20260502063530 55 225 3.0 10.0 0.00 0.00 0.00 72 1008.3
20260502062530 54 180 2.0 5.0 0.00 0.00 0.00 74 1008.5
20260502061531 53 180 3.0 7.0 0.00 0.00 0.00 74 1008.6
20260502060532 53 158 5.0 9.0 0.00 0.00 0.00 74 1008.5
20260502055532 52 180 4.0 7.0 0.00 0.00 0.00 75 1008.6
20260502054530 52 180 4.0 7.0 0.00 0.00 0.00 74 1008.8
20260502053530 52 158 2.0 9.0 0.00 0.00 0.00 74 1009.0
20260502052550 51 270 2.0 6.0 0.00 0.00 0.00 76 1009.1
20260502051531 49 0.0 3.0 0.00 0.00 0.00 76 1009.1
20260502050530 47 293 2.0 6.0 0.00 0.00 0.00 73 1009.2
20260502045531 45 0.0 0.0 0.00 0.00 0.00 53 1009.3
20260502044531 43 0.0 0.0 0.00 0.00 0.00 45 1009.4
20260502043550 42 0.0 0.0 0.00 0.00 0.00 29 1009.6
20260502042530 41 293 2.0 4.0 0.00 0.00 0.00 1 1009.8
20260502041530 40 0.0 0.0 0.00 0.00 0.00 1 1009.9
20260502040530 38 0.0 0.0 0.00 0.00 0.00 1 1009.9
20260502035530 37 0.0 0.0 0.00 0.00 0.00 1 1009.8
20260502034530 36 0.0 0.0 0.00 0.00 0.00 2 1009.8
20260502033530 35 0.0 0.0 0.00 0.00 0.00 20 1009.6
20260502032530 34 0.0 0.0 0.00 0.00 0.00 19 1009.6
20260502031531 34 0.0 0.0 0.00 0.00 0.00 26 1010.0
20260502030530 34 0.0 0.0 0.00 0.00 0.00 27 1010.1
20260502025530 33 293 1.0 2.0 0.00 0.00 0.00 33 1010.2
20260502024529 34 0.0 0.0 0.00 0.00 0.00 33 1010.3
20260502023530 34 0.0 0.0 0.00 0.00 0.00 37 1010.5
20260502022530 34 0.0 0.0 0.00 0.00 0.00 36 1010.9
20260502021551 34 0.0 0.0 0.00 0.00 0.00 46 1011.0
20260502020610 34 0.0 0.0 0.00 0.00 0.00 51 1011.0
20260502015531 35 0.0 0.0 0.00 0.00 0.00 51 1011.1
20260502014530 35 0.0 0.0 0.00 0.00 0.00 41 1011.3
20260502013530 35 0.0 0.0 0.00 0.00 0.00 43 1011.4
20260502012530 35 0.0 0.0 0.00 0.00 0.00 55 1011.7
20260502011531 35 0.0 0.0 0.00 0.00 0.00 61 1011.7
20260502010530 36 0.0 0.0 0.00 0.00 0.00 63 1011.9
20260502005530 36 0.0 0.0 0.00 0.00 0.00 65 1012.0
20260502004530 37 0.0 0.0 0.00 0.00 0.00 60 1012.1
20260502003530 37 0.0 0.0 0.00 0.00 0.00 60 1012.0
20260502002530 37 0.0 0.0 0.00 0.00 0.00 69 1012.0
20260502001530 37 0.0 0.0 0.00 0.00 0.00 68 1012.1
20260502000530 37 0.0 0.0 0.00 0.00 0.00 70 1012.2
20260501235530 38 0.0 0.0 0.00 0.00 0.00 70 1012.3
20260501234530 38 0.0 0.0 0.00 0.00 0.00 73 1012.3
20260501233530 38 0.0 0.0 0.00 0.00 0.00 72 1012.4
20260501232530 38 0.0 0.0 0.00 0.00 0.00 72 1012.4
20260501231531 39 0.0 0.0 0.00 0.00 0.00 76 1012.4
20260501230530 39 0.0 0.0 0.00 0.00 0.00 75 1012.5
20260501225551 40 0.0 0.0 0.00 0.00 0.00 74 1012.5
20260501224531 40 0.0 0.0 0.00 0.00 0.00 76 1012.7
20260501223531 40 0.0 0.0 0.00 0.00 0.00 77 1012.6
20260501222534 41 0.0 0.0 0.00 0.00 0.00 77 1012.8
20260501221531 42 0.0 0.0 0.00 0.00 0.00 78 1013.0
20260501220530 42 0.0 0.0 0.00 0.00 0.00 78 1013.1
20260501215532 43 0.0 0.0 0.00 0.00 0.00 78 1013.0
20260501214610 44 0.0 0.0 0.00 0.00 0.00 78 1013.2
20260501213531 44 0.0 0.0 0.00 0.00 0.00 77 1013.2
20260501212530 44 0.0 0.0 0.00 0.00 0.00 77 1013.4
20260501211530 45 0.0 0.0 0.00 0.00 0.00 75 1013.5
20260501210532 46 0.0 0.0 0.00 0.00 0.00 75 1013.4
20260501205530 46 0.0 0.0 0.00 0.00 0.00 74 1013.6
20260501204551 47 0.0 0.0 0.00 0.00 0.00 72 1013.5
20260501203530 49 0.0 0.0 0.00 0.00 0.00 69 1013.6
20260501202530 50 0.0 0.0 0.00 0.00 0.00 66 1013.6
20260501201530 51 0.0 0.0 0.00 0.00 0.00 65 1013.7
20260501200550 53 293 1.0 3.0 0.00 0.00 0.00 61 1013.8
20260501195530 54 293 2.0 6.0 0.00 0.00 0.00 59 1013.9
20260501194531 54 293 3.0 6.0 0.00 0.00 0.00 59 1013.9
20260501193531 54 270 2.0 6.0 0.00 0.00 0.00 59 1013.9
20260501192551 54 270 2.0 6.0 0.00 0.00 0.00 58 1013.9
20260501191550 55 0.0 4.0 0.00 0.00 0.00 57 1014.0
20260501190530 56 270 1.0 3.0 0.00 0.00 0.00 55 1014.0
20260501185531 57 270 1.0 3.0 0.00 0.00 0.00 54 1014.1
20260501184530 58 270 1.0 4.0 0.00 0.00 0.00 52 1013.9
20260501183531 59 270 1.0 3.0 0.00 0.00 0.00 51 1013.9
20260501182530 59 270 1.0 3.0 0.00 0.00 0.00 49 1013.9
20260501181530 60 0.0 3.0 0.00 0.00 0.00 48 1013.9
20260501180611 61 270 1.0 4.0 0.00 0.00 0.00 46 1013.9
20260501175530 61 0.0 4.0 0.00 0.00 0.00 46 1014.0
20260501174531 62 270 1.0 4.0 0.00 0.00 0.00 45 1013.9
20260501173530 63 0.0 4.0 0.00 0.00 0.00 44 1013.9
20260501172534 63 270 1.0 3.0 0.00 0.00 0.00 43 1014.0
20260501171532 64 270 1.0 7.0 0.00 0.00 0.00 41 1014.0
20260501170533 65 0.0 3.0 0.00 0.00 0.00 40 1014.1
20260501165531 65 293 1.0 4.0 0.00 0.00 0.00 39 1014.1
20260501164530 66 293 3.0 9.0 0.00 0.00 0.00 38 1014.1
20260501163530 66 293 1.0 8.0 0.00 0.00 0.00 38 1014.2
20260501162531 67 293 1.0 6.0 0.00 0.00 0.00 37 1014.4
20260501161530 66 270 1.0 4.0 0.00 0.00 0.00 38 1014.4
20260501160530 67 270 1.0 7.0 0.00 0.00 0.00 38 1014.5
20260501155550 67 293 1.0 7.0 0.00 0.00 0.00 39 1014.6
20260501154530 66 293 2.0 9.0 0.00 0.00 0.00 38 1014.6
20260501153530 66 270 2.0 10.0 0.00 0.00 0.00 38 1014.7
20260501152530 66 293 3.0 8.0 0.00 0.00 0.00 39 1014.8
20260501151530 67 293 2.0 9.0 0.00 0.00 0.00 39 1015.0
20260501150530 67 293 3.0 9.0 0.00 0.00 0.00 38 1015.0
20260501145611 67 270 1.0 4.0 0.00 0.00 0.00 38 1015.1
20260501143550 66 293 5.0 10.0 0.00 0.00 0.00 39 1015.4
20260501142530 66 293 3.0 10.0 0.00 0.00 0.00 40 1015.5
20260501141530 66 293 2.0 8.0 0.00 0.00 0.00 39 1015.6